Regional Weather Roundup
Issued by NWS

Home | Current Version | Previous Version | Text Only | Print | Product List | Glossary Off
Versions: 1 2 3 4 5 6 7 8 9 10 11 12 13 14 15 16 17 18 19 20 21 22 23 24 25 26 27 28 29 30 31 32 33 34 35 36 37 38 39 40 41 42 43 44 45 46 47 48 49 50

000
ASUS43 KMKX 180421
RWRWI

WISCONSIN REGIONAL WEATHER ROUNDUP
NATIONAL WEATHER SERVICE MILWAUKEE/SULLIVAN WI
1100 PM CDT WED SEP 17 2014

NOTE: "FAIR" INDICATES FEW OR NO CLOUDS BELOW 12,000 FEET WITH NO
SIGNIFICANT WEATHER AND/OR OBSTRUCTIONS TO VISIBILITY.

WIZ001-002-006>008-014>016-023>028-180500-
NORTHWEST WISCONSIN

CITY           SKY/WX    TMP DP  RH WIND       PRES   REMARKS
SUPERIOR ARPT  MOCLDY    45  40  82 E6        30.13S
ASHLAND        CLOUDY    44  38  79 NE9       30.14S
HAYWARD        CLOUDY    46  43  89 NE6       30.10S
SIREN          CLOUDY    48  44  85 E7        30.09R
RICE LAKE      CLEAR     48  45  87 N8        30.09R
LADYSMITH      CLEAR     47  45  93 N6        30.09R
EAU CLAIRE     CLEAR     55  51  86 NE7       30.04R
MENOMONIE      CLEAR     56  52  85 NE9       30.04R
NEW RICHMOND   CLEAR     54  52  94 NE7       30.04R
OSCEOLA        CLEAR     55  53  95 NE9       30.07R
$$

WIZ003>005-009-010-017-018-180500-
NORTH CENTRAL WISCONSIN

CITY           SKY/WX    TMP DP  RH WIND       PRES   REMARKS
WOODRUFF       CLOUDY    47  43  86 NE6       30.10R
RHINELANDER    CLOUDY    47  43  86 E8        30.10R
EAGLE RIVER    CLOUDY    44  40  86 NE5       30.10R
LAND O LAKES   CLOUDY    41  38  87 E8        30.12R
PHILLIPS       CLEAR     46  44  93 NE6       30.08S
TOMAHAWK       MOCLDY    49  45  86 NE3       30.09R
MEDFORD        CLEAR     49  47  92 NE6       30.06R
MERRILL        MOCLDY    51  48  90 NE5       30.07R
$$

WIZ029-030-035-036-043>047-180500-
CENTRAL WISCONSIN

CITY           SKY/WX    TMP DP  RH WIND       PRES   REMARKS
WAUSAU         CLEAR     54  50  86 VRB5      30.05R
MOSINEE        CLEAR     52  52 100 NE9       30.06R
MARSHFIELD     CLEAR     56  51  84 NE8       30.04R
STEVENS POINT  PTCLDY    52  49  90 E10       30.05R
WAUPACA        MOCLDY    56  53  89 NE9       30.06R
WAUTOMA        CLEAR     48  47  97 CALM      30.04R
WISC RAPIDS    FOG       50  48  93 CALM      30.04S VSB 3/4
CAMP DOUGLAS   CLEAR     45  45 100 CALM      30.03R
$$

WIZ011>013-019>022-031-037>040-048>050-180500-
NORTHEAST WISCONSIN

CITY           SKY/WX    TMP DP  RH WIND       PRES   REMARKS
ANTIGO         CLOUDY    49  47  93 E9        30.08R
STURGEON BAY   CLOUDY    48  41  76 NE8       30.09R
GREEN BAY      CLOUDY    52  47  83 NE20G26   30.07R
MANITOWOC      PTCLDY    53  49  86 N12G18    30.06R
APPLETON       MOCLDY    52  46  82 NE16      30.06R
CLINTONVILLE   CLOUDY    52  45  76 NE8       30.07R
OSHKOSH        CLOUDY    55  51  86 NE15G21   30.05R
$$

WIZ032>034-041-042-053>061-180500-
SOUTHWEST WISCONSIN

CITY           SKY/WX    TMP DP  RH WIND       PRES   REMARKS
LA CROSSE      CLEAR     56  53  90 SE5       30.02R
SPARTA         CLEAR     47  46  98 CALM      30.04S
VIROQUA        FAIR      51  51  99 S3        30.04R
BOSCOBEL       FOG       51  49  92 CALM      30.04R VSB 1/2
PRAIRIE DU CHI CLEAR     52  50  92 CALM      30.04R
PLATTEVILLE    FAIR      55  49  81 CALM      30.04S
$$

WIZ056-057-062-063-064-067-068-180500-
SOUTH CENTRAL WISCONSIN

CITY           SKY/WX    TMP DP  RH WIND       PRES   REMARKS
BARABOO/DELLS  CLEAR     51  49  93 CALM      30.04R
LONE ROCK      PTCLDY    51  46  83 NE3       30.04R HAZE
WATERTOWN      CLEAR     48  48  99 CALM      30.03R
MADISON        CLEAR     52  49  89 CALM      30.03R
MIDDLETON        N/A     50  49  99 CALM      30.04R VSB 1/2
MONROE         CLEAR     61  50  67 SE3       30.04R
JANESVILLE     CLEAR     52  50  93 CALM      30.03R
$$

WIZ051-052-058>065-066-070>072-180500-
SOUTHEAST WISCONSIN

CITY           SKY/WX    TMP DP  RH WIND       PRES   REMARKS
MILWAUKEE      CLEAR     57  47  69 CALM      30.03R
WAUKESHA       CLEAR     50  46  87 CALM      30.04R
MILWAUKEE/TIMM CLEAR     52  46  82 CALM      30.04R
RACINE         CLEAR     52  47  83 SW3       30.05R
BURLINGTON       N/A     44  44 100 CALM      30.04R FOG
KENOSHA        CLEAR     50  47  89 CALM      30.04R
FOND DU LAC    CLEAR     50  47  89 CALM      30.03R
SHEBOYGAN      CLEAR     50  48  93 S3        30.02R
WEST BEND      CLEAR     48  45  87 CALM      30.03R
JUNEAU         CLEAR     52  49  89 CALM      30.04R
$$

LSZ147-162-180500-
LAKE SUPERIOR

STATION/POSITION TIME  TEMP    WIND        PRES    WAVE
                       AIR SEA DIR/SP/G            HT/PER
                 (UTC) (F)     (DEG/KT/KT) (MB)    (FT/S)
W MID LAKE BUOY  0350   44 47   70/ 14/ 16 1021.5R   3/ 6
DEVILS ISLAND    0400   45      70/ 19/ 21 1021.6R
PORT WING        0300   45      80/  4/  9 1020.7
SAXON HARBOR     0300   46      80/  5/  8 1020.7R
$$

LMZ867-665-643>646-180500-
LAKE MICHIGAN

STATION/POSITION TIME  TEMP    WIND        PRES    WAVE
                       AIR SEA DIR/SP/G            HT/PER
                 (UTC) (F)     (DEG/KT/KT) (MB)    (FT/S)
N MID LAKE BUOY  0350   48 59   10/ 19/ 23 1018.6R   4/ 5
NORTHPORT PIER   0300   49      20/ 14/ 17 1018.6R
KEWAUNEE LAKESHO 0400   52      20/ 14/ 23 1017.0R
SHEBOYGAN LAKESH 0400   56 51  360/ 13/ 15 1017.5R
PORT WASHINGTON  0300   54     240/  2/  2 1016.9
ATWATER BUOY     0400   58     200/  6/  8 1017.8R
MILWAUKEE LAKESH 0400   58     240/  4/  5   N/A
S MID LAKE BUOY  0350   63 65  180/  6/  8 1017.1R   0
KENOSHA   LAKESH 0400   59     220/  5/  7 1016.9R
$$

TC  - TEMPERATURE IN CELSIUS
VSB - VISIBILITY IN STATUTE MILES
WCI - WIND CHILL INDEX
HX  - HEAT INDEX




USA.gov is the U.S. government's official web portal to all federal, state and local government web resources and services.